Track STARLINK-5424 now! 10-day predictions STARLINK-5424 is classified as:
1 54811U 22175BF 24324.51627846 .00013092 00000-0 83845-3 0 9996 2 54811 53.2180 357.3019 0001499 74.4674 285.6483 15.08870681106303